Time,TemperatureF,DewpointF,PressureIn,WindDirection,WindDirectionDegrees,WindSpeedMPH,WindSpeedGustMPH,Humidity,HourlyPrecipIn,Conditions,Clouds,dailyrainin,SoftwareType,DateUTC
2013-01-26 00:03:00,11.0,8.0,29.96,SW,229,0.0,-999.0,88,-99.99,,,-99.99,,2013-01-26 05:03:00,
2013-01-26 00:12:00,11.0,8.0,29.96,SW,229,0.0,-999.0,88,-99.99,,,-99.99,,2013-01-26 05:12:00,
2013-01-26 00:23:00,11.0,8.0,29.96,SW,229,0.0,-999.0,89,-99.99,,,-99.99,,2013-01-26 05:23:00,
2013-01-26 00:33:00,11.0,8.0,29.96,SW,229,0.0,-999.0,89,-99.99,,,-99.99,,2013-01-26 05:33:00,
2013-01-26 00:42:00,11.0,8.0,29.96,SW,229,0.0,-999.0,89,-99.99,,,-99.99,,2013-01-26 05:42:00,
2013-01-26 00:52:00,10.0,7.0,29.97,SW,229,0.0,-999.0,89,-99.99,,,-99.99,,2013-01-26 05:52:00,
2013-01-26 01:03:00,10.0,8.0,29.97,SW,229,0.0,-999.0,90,-99.99,,,-99.99,,2013-01-26 06:03:00,
2013-01-26 01:12:00,10.0,8.0,29.97,SW,229,0.0,-999.0,90,-99.99,,,-99.99,,2013-01-26 06:12:00,
2013-01-26 01:21:00,10.0,8.0,29.97,WSW,242,0.0,-999.0,90,-99.99,,,-99.99,,2013-01-26 06:21:00,
2013-01-26 01:32:00,10.0,8.0,29.97,WSW,242,0.0,-999.0,90,-99.99,,,-99.99,,2013-01-26 06:32:00,
2013-01-26 01:42:00,10.0,8.0,29.97,WSW,242,0.0,-999.0,90,-99.99,,,-99.99,,2013-01-26 06:42:00,
2013-01-26 01:52:00,10.0,8.0,29.97,WSW,242,0.0,-999.0,90,-99.99,,,-99.99,,2013-01-26 06:52:00,
2013-01-26 02:02:00,10.0,8.0,29.96,WSW,242,0.0,-999.0,90,-99.99,,,-99.99,,2013-01-26 07:02:00,
2013-01-26 02:12:00,10.0,8.0,29.96,WSW,242,0.0,-999.0,90,-99.99,,,-99.99,,2013-01-26 07:12:00,
2013-01-26 02:22:00,10.0,8.0,29.96,WSW,242,0.0,-999.0,90,-99.99,,,-99.99,,2013-01-26 07:22:00,
2013-01-26 02:33:00,9.0,7.0,29.96,WSW,242,0.0,-999.0,90,-99.99,,,-99.99,,2013-01-26 07:33:00,
2013-01-26 02:42:00,9.0,7.0,29.96,WSW,242,0.0,-999.0,90,-99.99,,,-99.99,,2013-01-26 07:42:00,
2013-01-26 02:52:00,9.0,7.0,29.96,WSW,242,0.0,-999.0,90,-99.99,,,-99.99,,2013-01-26 07:52:00,
2013-01-26 03:02:00,9.0,7.0,29.96,WSW,242,0.0,-999.0,90,-99.99,,,-99.99,,2013-01-26 08:02:00,
2013-01-26 03:11:00,9.0,7.0,29.96,WSW,242,0.0,-999.0,90,-99.99,,,-99.99,,2013-01-26 08:11:00,
2013-01-26 03:22:00,9.0,7.0,29.96,WSW,242,0.0,-999.0,90,-99.99,,,-99.99,,2013-01-26 08:22:00,
2013-01-26 03:32:00,9.0,6.0,29.95,WSW,242,0.0,-999.0,89,-99.99,,,-99.99,,2013-01-26 08:32:00,
2013-01-26 03:42:00,9.0,6.0,29.95,WSW,242,0.0,-999.0,89,-99.99,,,-99.99,,2013-01-26 08:42:00,
2013-01-26 03:53:00,8.0,5.0,29.95,WSW,242,0.0,-999.0,89,-99.99,,,-99.99,,2013-01-26 08:53:00,
2013-01-26 04:02:00,8.0,6.0,29.95,WSW,242,0.0,-999.0,90,-99.99,,,-99.99,,2013-01-26 09:02:00,
2013-01-26 04:11:00,8.0,6.0,29.95,WSW,242,0.0,-999.0,90,-99.99,,,-99.99,,2013-01-26 09:11:00,
2013-01-26 04:22:00,8.0,6.0,29.96,WSW,242,0.0,-999.0,90,-99.99,,,-99.99,,2013-01-26 09:22:00,
2013-01-26 04:32:00,8.0,6.0,29.96,WSW,242,0.0,-999.0,90,-99.99,,,-99.99,,2013-01-26 09:32:00,
2013-01-26 04:42:00,8.0,6.0,29.96,WSW,242,0.0,-999.0,90,-99.99,,,-99.99,,2013-01-26 09:42:00,
2013-01-26 04:51:00,8.0,6.0,29.96,WSW,242,0.0,-999.0,90,-99.99,,,-99.99,,2013-01-26 09:51:00,
2013-01-26 05:01:00,8.0,5.0,29.96,WSW,242,0.0,-999.0,89,-99.99,,,-99.99,,2013-01-26 10:01:00,
2013-01-26 05:12:00,8.0,5.0,29.96,WSW,242,0.0,-999.0,89,-99.99,,,-99.99,,2013-01-26 10:12:00,
2013-01-26 05:21:00,8.0,5.0,29.97,WSW,242,0.0,-999.0,89,-99.99,,,-99.99,,2013-01-26 10:21:00,
2013-01-26 05:32:00,8.0,5.0,29.98,WSW,242,0.0,-999.0,89,-99.99,,,-99.99,,2013-01-26 10:32:00,
2013-01-26 05:42:00,8.0,5.0,29.98,WSW,242,0.0,-999.0,89,-99.99,,,-99.99,,2013-01-26 10:42:00,
2013-01-26 05:52:00,8.0,5.0,29.98,WSW,242,0.0,-999.0,89,-99.99,,,-99.99,,2013-01-26 10:52:00,
2013-01-26 06:01:00,8.0,6.0,29.99,WSW,242,0.0,-999.0,90,-99.99,,,-99.99,,2013-01-26 11:01:00,
2013-01-26 06:12:00,8.0,6.0,29.99,WSW,242,0.0,-999.0,90,-99.99,,,-99.99,,2013-01-26 11:12:00,
2013-01-26 06:22:00,9.0,7.0,29.99,WSW,245,0.0,-999.0,92,-99.99,,,-99.99,,2013-01-26 11:22:00,
2013-01-26 06:32:00,11.0,9.0,30.00,WSW,245,0.0,-999.0,92,-99.99,,,-99.99,,2013-01-26 11:32:00,
2013-01-26 06:42:00,11.0,9.0,30.00,WSW,245,0.0,-999.0,92,-99.99,,,-99.99,,2013-01-26 11:42:00,
2013-01-26 06:52:00,12.0,10.0,30.00,WSW,245,0.0,-999.0,92,-99.99,,,-99.99,,2013-01-26 11:52:00,
2013-01-26 07:02:00,13.0,11.0,30.00,NNW,332,0.0,-999.0,92,-99.99,,,-99.99,,2013-01-26 12:02:00,
2013-01-26 07:12:00,13.0,11.0,30.00,NNW,332,0.0,-999.0,92,-99.99,,,-99.99,,2013-01-26 12:12:00,
2013-01-26 07:23:00,13.0,11.0,30.01,NW,309,0.0,-999.0,91,-99.99,,,-99.99,,2013-01-26 12:23:00,
2013-01-26 07:33:00,14.0,12.0,30.01,NW,309,0.0,-999.0,91,-99.99,,,-99.99,,2013-01-26 12:33:00,
2013-01-26 07:42:00,14.0,12.0,30.01,NW,309,0.0,-999.0,91,-99.99,,,-99.99,,2013-01-26 12:42:00,
2013-01-26 07:52:00,14.0,12.0,30.02,NW,317,0.0,-999.0,91,-99.99,,,-99.99,,2013-01-26 12:52:00,
2013-01-26 08:04:00,15.0,13.0,30.03,NW,312,1.0,-999.0,91,-99.99,,,-99.99,,2013-01-26 13:04:00,
2013-01-26 08:12:00,15.0,13.0,30.03,NW,312,1.0,-999.0,91,-99.99,,,-99.99,,2013-01-26 13:12:00,
2013-01-26 08:22:00,15.0,13.0,30.03,NW,306,1.0,-999.0,90,-99.99,,,-99.99,,2013-01-26 13:22:00,
2013-01-26 08:33:00,15.0,12.0,30.03,NW,312,1.0,-999.0,89,-99.99,,,-99.99,,2013-01-26 13:33:00,
2013-01-26 08:42:00,15.0,12.0,30.03,NW,312,1.0,-999.0,89,-99.99,,,-99.99,,2013-01-26 13:42:00,
2013-01-26 08:52:00,15.0,13.0,30.05,WNW,286,0.0,-999.0,90,-99.99,,,-99.99,,2013-01-26 13:52:00,
2013-01-26 09:03:00,16.0,14.0,30.05,WNW,300,0.0,-999.0,90,-99.99,,,-99.99,,2013-01-26 14:03:00,
2013-01-26 09:12:00,16.0,14.0,30.05,WNW,300,0.0,-999.0,90,-99.99,,,-99.99,,2013-01-26 14:12:00,
2013-01-26 09:22:00,17.0,14.0,30.05,NW,315,2.0,-999.0,89,-99.99,,,-99.99,,2013-01-26 14:22:00,
2013-01-26 09:32:00,19.0,16.0,30.06,NW,326,2.0,-999.0,87,-99.99,,,-99.99,,2013-01-26 14:32:00,
2013-01-26 09:43:00,19.0,16.0,30.06,NW,326,2.0,-999.0,87,-99.99,,,-99.99,,2013-01-26 14:43:00,
2013-01-26 09:52:00,20.0,16.0,30.06,NW,324,1.0,-999.0,84,-99.99,,,-99.99,,2013-01-26 14:52:00,
2013-01-26 10:03:00,21.0,16.0,30.06,NW,326,2.0,-999.0,80,-99.99,,,-99.99,,2013-01-26 15:03:00,
2013-01-26 10:12:00,21.0,16.0,30.06,NW,326,2.0,-999.0,80,-99.99,,,-99.99,,2013-01-26 15:12:00,
2013-01-26 10:22:00,21.0,15.0,30.06,NW,317,3.0,-999.0,77,-99.99,,,-99.99,,2013-01-26 15:22:00,
2013-01-26 10:33:00,22.0,15.0,30.06,NNE,13,3.0,-999.0,75,-99.99,,,-99.99,,2013-01-26 15:33:00,
2013-01-26 10:43:00,22.0,15.0,30.06,NNE,13,3.0,-999.0,75,-99.99,,,-99.99,,2013-01-26 15:43:00,
2013-01-26 10:52:00,23.0,16.0,30.06,NW,315,3.0,-999.0,75,-99.99,,,-99.99,,2013-01-26 15:52:00,
2013-01-26 11:02:00,24.0,16.0,30.06,NW,313,3.0,-999.0,70,-99.99,,,-99.99,,2013-01-26 16:02:00,
2013-01-26 11:12:00,24.0,16.0,30.06,NW,313,3.0,-999.0,70,-99.99,,,-99.99,,2013-01-26 16:12:00,
2013-01-26 11:22:00,24.0,16.0,30.07,WNW,290,3.0,-999.0,71,-99.99,,,-99.99,,2013-01-26 16:22:00,
2013-01-26 11:33:00,24.0,15.0,30.07,WNW,302,4.0,-999.0,69,-99.99,,,-99.99,,2013-01-26 16:33:00,
2013-01-26 11:42:00,24.0,15.0,30.07,WNW,302,4.0,-999.0,69,-99.99,,,-99.99,,2013-01-26 16:42:00,
2013-01-26 11:53:00,24.0,15.0,30.07,WNW,298,3.0,-999.0,67,-99.99,,,-99.99,,2013-01-26 16:53:00,
2013-01-26 12:03:00,24.0,14.0,30.07,NW,317,4.0,-999.0,66,-99.99,,,-99.99,,2013-01-26 17:03:00,
2013-01-26 12:13:00,24.0,14.0,30.07,NW,317,4.0,-999.0,66,-99.99,,,-99.99,,2013-01-26 17:13:00,
2013-01-26 12:22:00,25.0,15.0,30.07,WNW,301,3.0,-999.0,65,-99.99,,,-99.99,,2013-01-26 17:22:00,
2013-01-26 12:33:00,27.0,17.0,30.06,NW,318,3.0,-999.0,65,-99.99,,,-99.99,,2013-01-26 17:33:00,
2013-01-26 12:42:00,27.0,17.0,30.06,NW,318,3.0,-999.0,65,-99.99,,,-99.99,,2013-01-26 17:42:00,
2013-01-26 12:52:00,26.0,15.0,30.04,West,260,3.0,-999.0,63,-99.99,,,-99.99,,2013-01-26 17:52:00,
2013-01-26 13:03:00,27.0,15.0,30.03,NW,306,3.0,-999.0,61,-99.99,,,-99.99,,2013-01-26 18:03:00,
2013-01-26 13:12:00,27.0,15.0,30.03,NW,306,3.0,-999.0,61,-99.99,,,-99.99,,2013-01-26 18:12:00,
2013-01-26 13:22:00,28.0,16.0,30.03,NNW,329,3.0,-999.0,61,-99.99,,,-99.99,,2013-01-26 18:22:00,
2013-01-26 13:33:00,29.0,15.0,30.03,NNW,332,3.0,-999.0,55,-99.99,,,-99.99,,2013-01-26 18:33:00,
2013-01-26 13:42:00,29.0,15.0,30.03,NNW,332,3.0,-999.0,55,-99.99,,,-99.99,,2013-01-26 18:42:00,
2013-01-26 13:53:00,29.0,14.0,30.03,NW,324,3.0,-999.0,54,-99.99,,,-99.99,,2013-01-26 18:53:00,
2013-01-26 14:03:00,29.0,15.0,30.03,SW,226,3.0,-999.0,55,-99.99,,,-99.99,,2013-01-26 19:03:00,
2013-01-26 14:12:00,29.0,15.0,30.03,SW,226,3.0,-999.0,55,-99.99,,,-99.99,,2013-01-26 19:12:00,
2013-01-26 14:22:00,30.0,15.0,30.03,WNW,297,3.0,-999.0,53,-99.99,,,-99.99,,2013-01-26 19:22:00,
2013-01-26 14:32:00,30.0,14.0,30.03,NNW,329,5.0,-999.0,50,-99.99,,,-99.99,,2013-01-26 19:32:00,
2013-01-26 14:42:00,30.0,14.0,30.03,NNW,329,5.0,-999.0,50,-99.99,,,-99.99,,2013-01-26 19:42:00,
2013-01-26 14:53:00,30.0,14.0,30.03,WNW,300,4.0,-999.0,50,-99.99,,,-99.99,,2013-01-26 19:53:00,
2013-01-26 15:02:00,30.0,13.0,30.04,NW,316,4.0,-999.0,49,-99.99,,,-99.99,,2013-01-26 20:02:00,
2013-01-26 15:11:00,30.0,13.0,30.04,NW,316,4.0,-999.0,49,-99.99,,,-99.99,,2013-01-26 20:11:00,
2013-01-26 15:22:00,30.0,13.0,30.05,WNW,301,4.0,-999.0,48,-99.99,,,-99.99,,2013-01-26 20:22:00,
2013-01-26 15:32:00,30.0,12.0,30.05,NNW,330,5.0,-999.0,47,-99.99,,,-99.99,,2013-01-26 20:32:00,
2013-01-26 15:42:00,30.0,12.0,30.05,NNW,330,5.0,-999.0,47,-99.99,,,-99.99,,2013-01-26 20:42:00,
2013-01-26 15:52:00,30.0,13.0,30.06,NW,318,4.0,-999.0,48,-99.99,,,-99.99,,2013-01-26 20:52:00,
2013-01-26 16:02:00,30.0,13.0,30.07,WNW,298,4.0,-999.0,49,-99.99,,,-99.99,,2013-01-26 21:02:00,
2013-01-26 16:12:00,30.0,13.0,30.07,WNW,298,4.0,-999.0,49,-99.99,,,-99.99,,2013-01-26 21:12:00,
2013-01-26 16:23:00,29.0,12.0,30.07,NW,309,4.0,-999.0,49,-99.99,,,-99.99,,2013-01-26 21:23:00,
2013-01-26 16:32:00,28.0,12.0,30.08,NW,312,4.0,-999.0,50,-99.99,,,-99.99,,2013-01-26 21:32:00,
2013-01-26 16:42:00,28.0,12.0,30.08,NW,312,4.0,-999.0,50,-99.99,,,-99.99,,2013-01-26 21:42:00,
2013-01-26 16:52:00,27.0,11.0,30.08,WNW,293,4.0,-999.0,50,-99.99,,,-99.99,,2013-01-26 21:52:00,
2013-01-26 17:02:00,27.0,12.0,30.09,NW,324,2.0,-999.0,52,-99.99,,,-99.99,,2013-01-26 22:02:00,
2013-01-26 17:12:00,27.0,12.0,30.09,NW,324,2.0,-999.0,52,-99.99,,,-99.99,,2013-01-26 22:12:00,
2013-01-26 17:22:00,26.0,11.0,30.08,West,281,3.0,-999.0,53,-99.99,,,-99.99,,2013-01-26 22:22:00,
2013-01-26 17:32:00,26.0,11.0,30.09,NNW,333,2.0,-999.0,53,-99.99,,,-99.99,,2013-01-26 22:32:00,
2013-01-26 17:42:00,26.0,11.0,30.09,NNW,333,2.0,-999.0,53,-99.99,,,-99.99,,2013-01-26 22:42:00,
2013-01-26 17:52:00,25.0,11.0,30.10,NW,323,2.0,-999.0,55,-99.99,,,-99.99,,2013-01-26 22:52:00,
2013-01-26 18:02:00,25.0,12.0,30.11,NW,317,2.0,-999.0,57,-99.99,,,-99.99,,2013-01-26 23:02:00,
2013-01-26 18:12:00,25.0,12.0,30.11,NW,317,2.0,-999.0,57,-99.99,,,-99.99,,2013-01-26 23:12:00,
2013-01-26 18:22:00,24.0,11.0,30.12,NW,314,1.0,-999.0,57,-99.99,,,-99.99,,2013-01-26 23:22:00,
2013-01-26 18:32:00,23.0,11.0,30.14,WNW,297,0.0,-999.0,59,-99.99,,,-99.99,,2013-01-26 23:32:00,
2013-01-26 18:42:00,23.0,11.0,30.14,WNW,297,0.0,-999.0,59,-99.99,,,-99.99,,2013-01-26 23:42:00,
2013-01-26 18:52:00,23.0,11.0,30.14,NW,315,2.0,-999.0,59,-99.99,,,-99.99,,2013-01-26 23:52:00,
2013-01-26 19:02:00,23.0,11.0,30.15,NW,310,1.0,-999.0,59,-99.99,,,-99.99,,2013-01-27 00:02:00,
2013-01-26 19:12:00,23.0,11.0,30.15,NW,310,1.0,-999.0,59,-99.99,,,-99.99,,2013-01-27 00:12:00,
2013-01-26 19:22:00,23.0,11.0,30.15,NW,325,1.0,-999.0,59,-99.99,,,-99.99,,2013-01-27 00:22:00,
2013-01-26 19:32:00,23.0,11.0,30.16,NNW,329,1.0,-999.0,59,-99.99,,,-99.99,,2013-01-27 00:32:00,
2013-01-26 19:42:00,23.0,11.0,30.16,NNW,329,1.0,-999.0,59,-99.99,,,-99.99,,2013-01-27 00:42:00,
2013-01-26 19:52:00,22.0,10.0,30.17,WNW,300,1.0,-999.0,60,-99.99,,,-99.99,,2013-01-27 00:52:00,
2013-01-26 20:01:00,22.0,10.0,30.18,NNE,23,2.0,-999.0,59,-99.99,,,-99.99,,2013-01-27 01:01:00,
2013-01-26 20:11:00,22.0,10.0,30.18,NNE,23,2.0,-999.0,59,-99.99,,,-99.99,,2013-01-27 01:11:00,
2013-01-26 20:22:00,22.0,10.0,30.19,NW,317,2.0,-999.0,59,-99.99,,,-99.99,,2013-01-27 01:22:00,
2013-01-26 20:32:00,22.0,10.0,30.19,NNW,336,1.0,-999.0,59,-99.99,,,-99.99,,2013-01-27 01:32:00,
2013-01-26 20:42:00,22.0,10.0,30.19,NNW,336,1.0,-999.0,59,-99.99,,,-99.99,,2013-01-27 01:42:00,
2013-01-26 20:52:00,22.0,10.0,30.19,NNW,343,1.0,-999.0,60,-99.99,,,-99.99,,2013-01-27 01:52:00,
2013-01-26 21:01:00,22.0,10.0,30.20,North,360,2.0,-999.0,60,-99.99,,,-99.99,,2013-01-27 02:01:00,
2013-01-26 21:12:00,22.0,10.0,30.20,North,360,2.0,-999.0,60,-99.99,,,-99.99,,2013-01-27 02:12:00,
2013-01-26 21:22:00,21.0,9.0,30.21,NW,308,1.0,-999.0,60,-99.99,,,-99.99,,2013-01-27 02:22:00,
2013-01-26 21:32:00,21.0,10.0,30.22,NNW,327,0.0,-999.0,62,-99.99,,,-99.99,,2013-01-27 02:32:00,
2013-01-26 21:42:00,21.0,10.0,30.22,NNW,327,0.0,-999.0,62,-99.99,,,-99.99,,2013-01-27 02:42:00,
2013-01-26 21:52:00,20.0,9.0,30.23,NW,325,0.0,-999.0,63,-99.99,,,-99.99,,2013-01-27 02:52:00,
2013-01-26 22:02:00,20.0,9.0,30.24,North,355,0.0,-999.0,63,-99.99,,,-99.99,,2013-01-27 03:02:00,
2013-01-26 22:11:00,20.0,9.0,30.24,North,355,0.0,-999.0,63,-99.99,,,-99.99,,2013-01-27 03:11:00,
2013-01-26 22:21:00,19.0,9.0,30.25,North,355,0.0,-999.0,63,-99.99,,,-99.99,,2013-01-27 03:21:00,
2013-01-26 22:32:00,19.0,9.0,30.26,North,355,0.0,-999.0,64,-99.99,,,-99.99,,2013-01-27 03:32:00,
2013-01-26 22:42:00,19.0,9.0,30.26,North,355,0.0,-999.0,64,-99.99,,,-99.99,,2013-01-27 03:42:00,
2013-01-26 22:52:00,18.0,8.0,30.27,North,355,0.0,-999.0,65,-99.99,,,-99.99,,2013-01-27 03:52:00,
2013-01-26 23:02:00,17.0,8.0,30.27,North,355,0.0,-999.0,67,-99.99,,,-99.99,,2013-01-27 04:02:00,
2013-01-26 23:12:00,17.0,8.0,30.27,North,355,0.0,-999.0,67,-99.99,,,-99.99,,2013-01-27 04:12:00,
2013-01-26 23:22:00,16.0,8.0,30.27,North,355,0.0,-999.0,70,-99.99,,,-99.99,,2013-01-27 04:22:00,
2013-01-26 23:32:00,16.0,8.0,30.27,North,355,0.0,-999.0,71,-99.99,,,-99.99,,2013-01-27 04:32:00,
2013-01-26 23:42:00,16.0,8.0,30.27,North,355,0.0,-999.0,71,-99.99,,,-99.99,,2013-01-27 04:42:00,
2013-01-26 23:52:00,15.0,8.0,30.27,North,355,0.0,-999.0,73,-99.99,,,-99.99,,2013-01-27 04:52:00,